[Show "Revision History"] [Show "General Page Infos"] [Show "Page hits and edits"]

Revision History

Showing page edit history entries from 1 to 64 out of 64 entries total. (5 | 10 | 25 | 50 | 100 | 200 items per page)

# Date Size Editor Comment Action
64 2013-03-24 23:10:28 2209 to previous SebastianBazley Recent Spam view
63 2013-03-24 12:36:17 2045 to previous SebastianBazley Recent Spam view
62 2011-06-28 07:41:24 2016 to previous StefanBodewig recent spam view
61 2011-06-19 08:52:31 1997 to previous markt   view
60 2011-06-18 01:34:20 1978 to previous SebastianBazley   view
59 2011-06-17 00:53:23 1959 to previous SebastianBazley Correct docs view
58 2011-06-17 00:52:12 2188 to previous SebastianBazley Remove REs already in BadContent view
57 2011-06-16 09:10:53 2254 to previous markt Tomcat spam view
56 2011-05-05 14:56:23 2233 to previous SebastianBazley   view
55 2011-05-03 11:28:30 2219 to previous SebastianBazley   view
54 2011-05-03 11:26:23 2207 to previous SebastianBazley   view
53 2011-05-03 11:23:01 2196 to previous SebastianBazley Add spam URL view
52 2011-04-26 12:00:15 2178 to previous SebastianBazley   view
51 2011-03-29 17:44:01 2166 to previous SebastianBazley   view
50 2011-03-26 12:19:42 2154 to previous SebastianBazley   view
49 2011-02-25 11:43:51 2139 to previous StefanBodewig   view
48 2011-02-02 20:25:20 2126 to previous SebastianBazley Basket SPAM view
47 2011-01-10 18:02:51 2044 to previous DougCutting add domain repeatedly spammed on hadoop wiki front page view
46 2011-01-07 08:06:43 1997 to previous markt Tomcat spam view
45 2010-12-30 15:28:28 1988 to previous SebastianBazley   view
44 2010-12-30 15:19:20 1963 to previous SebastianBazley   view
43 2010-12-21 01:30:04 1943 to previous markt Tomcat wiki spam view
42 2010-11-26 12:31:05 1928 to previous markt Tomcat spam view
41 2010-11-24 18:47:13 1911 to previous SebastianBazley   view
40 2010-09-30 14:41:08 1890 to previous markt Tomcat wiki spam view
39 2010-09-18 09:20:10 1845 to previous markt Tomact wiki spam view
38 2010-07-29 10:41:41 1832 to previous StefanBodewig spam appeared on Jakarta Wiki view
37 2010-07-05 23:45:56 1811 to previous SebastianBazley Spam seen in General Wiki view
36 2010-07-02 08:52:10 1696 to previous StefanBodewig   view
35 2010-07-02 06:03:04 1665 to previous StefanBodewig   view
34 2010-07-01 07:56:24 1626 to previous StefanBodewig   view
33 2010-06-30 19:21:35 1604 to previous SebastianBazley   view
32 2010-06-30 19:18:14 1589 to previous SebastianBazley   view
31 2010-06-30 10:57:05 1567 to previous StefanBodewig   view
30 2010-06-04 18:31:36 1551 to previous SebastianBazley   view
29 2010-06-04 07:26:10 1526 to previous markt More spam view
28 2010-05-25 19:48:59 1511 to previous markt Spam on Tomcat wiki view
27 2010-01-28 18:54:34 1494 to previous SebastianBazley The comment on this change is: Spam seen in General Wiki. view
26 2010-01-28 18:17:55 1461 to previous JoeSchaefer acl readded view
25 2009-09-20 23:35:18 1404 to previous localhost converted to 1.6 markup view
24 2009-07-23 15:05:13 1482 to previous JoeSchaefer please view
23 2009-02-18 03:15:21 1475 to previous JoeSchaefer   view
22 2009-02-18 03:14:26 1475 to previous JoeSchaefer   view
21 2009-02-18 03:06:45 1475 to previous JoeSchaefer   view
20 2007-09-12 11:07:15 402 to previous SebastianBazley Content moved to BadContent view
19 2007-09-11 10:01:56 1483 to previous Upayavira   view
18 2007-09-11 00:07:04 1574 to previous AntonioGallardo spam view
17 2007-09-11 00:02:50 1572 to previous AntonioGallardo Adding more sites from cocoon local content. view
16 2007-09-10 23:59:28 1221 to previous AntonioGallardo Add spamvertized website (Sept. 10th 2007) view
15 2006-09-29 08:46:32 923 to previous JustinMason SEO spammer attempting to spam SA wiki to gain pagerank view
14 2006-05-29 09:47:04 910 to previous JustinMason chinese wikispammer on the SA wiki hit with these yesterday view
13 2006-05-22 08:58:26 738 to previous JustinMason add cocoon-wiki spammer view
12 2005-06-11 14:04:25 726 to previous LeoSimons   view
11 2005-03-22 05:37:22 711 to previous anonymous missing edit-log entry for this revision view
10 2005-02-16 18:54:30 639 to previous anonymous missing edit-log entry for this revision view
9 2005-02-15 01:38:50 625 to previous anonymous missing edit-log entry for this revision view
8 2005-02-11 17:54:56 610 to previous anonymous missing edit-log entry for this revision view
7 2004-12-26 11:31:46 472 to previous anonymous missing edit-log entry for this revision view
6 2004-12-12 17:48:49 424 to previous anonymous missing edit-log entry for this revision view
5 2004-12-06 10:57:27 410 to previous anonymous missing edit-log entry for this revision view
4 2004-12-06 09:24:49 411 to previous anonymous missing edit-log entry for this revision view
3 2004-12-06 08:33:09 410 to previous anonymous missing edit-log entry for this revision view
2 2004-12-06 07:33:25 413 to previous anonymous missing edit-log entry for this revision view
1 2004-12-06 07:32:01 256 anonymous missing edit-log entry for this revision view